TimeCDT,TemperatureF,Dew PointF,Humidity,Sea Level PressureIn,VisibilityMPH,Wind Direction,Wind SpeedMPH,Gust SpeedMPH,PrecipitationIn,Events,Conditions,WindDirDegrees,DateUTC
12:15 AM,66.7,64.6,93,29.81,7.0,South,6.9,-,N/A,,Overcast,180,2013-03-18 05:15:00
12:35 AM,66.9,64.6,92,29.80,7.0,South,6.9,-,N/A,,Overcast,170,2013-03-18 05:35:00
12:55 AM,67.3,64.4,90,29.79,7.0,SSE,8.1,-,N/A,,Mostly Cloudy,160,2013-03-18 05:55:00
1:15 AM,67.3,64.4,90,29.79,7.0,South,6.9,-,N/A,,Scattered Clouds,170,2013-03-18 06:15:00
1:35 AM,67.1,64.2,90,29.78,7.0,South,6.9,-,N/A,,Scattered Clouds,170,2013-03-18 06:35:00
1:55 AM,67.1,64.4,91,29.80,7.0,SSW,4.6,-,N/A,,Mostly Cloudy,200,2013-03-18 06:55:00
2:15 AM,67.1,64.4,91,29.80,7.0,SSE,3.5,-,N/A,,Overcast,160,2013-03-18 07:15:00
2:35 AM,66.7,64.4,92,29.79,7.0,South,4.6,-,N/A,,Overcast,170,2013-03-18 07:35:00
2:55 AM,66.7,64.4,92,29.79,7.0,South,4.6,-,N/A,,Mostly Cloudy,170,2013-03-18 07:55:00
3:15 AM,67.1,64.4,91,29.79,7.0,SSE,3.5,-,N/A,,Mostly Cloudy,160,2013-03-18 08:15:00
3:35 AM,66.6,64.2,92,29.78,7.0,Calm,Calm,-,N/A,,Mostly Cloudy,0,2013-03-18 08:35:00
3:55 AM,66.2,64.0,93,29.77,5.0,SSE,3.5,-,N/A,,Mostly Cloudy,150,2013-03-18 08:55:00
4:15 AM,66.2,64.2,93,29.78,7.0,Calm,Calm,-,N/A,,Overcast,0,2013-03-18 09:15:00
4:35 AM,66.4,64.4,93,29.79,7.0,Calm,Calm,-,N/A,,Overcast,0,2013-03-18 09:35:00
4:55 AM,66.2,64.2,93,29.80,5.0,Calm,Calm,-,N/A,,Overcast,0,2013-03-18 09:55:00
5:15 AM,65.5,63.9,94,29.80,4.0,Calm,Calm,-,N/A,,Overcast,0,2013-03-18 10:15:00
5:35 AM,65.7,64.2,95,29.81,5.0,SSE,4.6,-,N/A,,Overcast,160,2013-03-18 10:35:00
5:55 AM,66.4,64.4,93,29.81,7.0,SSE,4.6,-,N/A,,Overcast,160,2013-03-18 10:55:00
6:15 AM,66.6,64.6,93,29.83,7.0,Calm,Calm,-,N/A,,Overcast,0,2013-03-18 11:15:00
6:35 AM,66.7,64.8,93,29.83,5.0,South,3.5,-,N/A,,Overcast,190,2013-03-18 11:35:00
6:55 AM,66.4,64.6,94,29.83,5.0,South,6.9,-,N/A,,Overcast,170,2013-03-18 11:55:00
7:15 AM,66.6,64.6,93,29.83,7.0,South,5.8,-,N/A,,Overcast,180,2013-03-18 12:15:00
7:35 AM,66.6,64.6,93,29.83,5.0,South,6.9,-,N/A,,Mostly Cloudy,170,2013-03-18 12:35:00
7:55 AM,66.4,64.4,93,29.83,4.0,South,4.6,-,N/A,,Scattered Clouds,180,2013-03-18 12:55:00
8:15 AM,66.6,64.6,93,29.84,5.0,South,5.8,-,N/A,,Scattered Clouds,180,2013-03-18 13:15:00
8:35 AM,67.1,64.9,93,29.84,5.0,South,5.8,-,N/A,,Mostly Cloudy,190,2013-03-18 13:35:00
8:55 AM,68.0,65.5,92,29.84,5.0,South,5.8,-,N/A,,Overcast,190,2013-03-18 13:55:00
9:15 AM,69.1,66.2,91,29.86,7.0,SW,6.9,-,N/A,,Mostly Cloudy,220,2013-03-18 14:15:00
9:35 AM,70.7,66.4,86,29.84,7.0,South,10.4,-,N/A,,Scattered Clouds,190,2013-03-18 14:35:00
9:55 AM,72.7,66.6,81,29.85,10.0,South,8.1,-,N/A,,Scattered Clouds,190,2013-03-18 14:55:00
10:15 AM,74.5,66.4,76,29.85,10.0,SSW,10.4,-,N/A,,Scattered Clouds,200,2013-03-18 15:15:00
10:35 AM,75.7,66.0,72,29.84,10.0,South,11.5,18.4,N/A,,Scattered Clouds,190,2013-03-18 15:35:00
10:55 AM,76.8,65.3,67,29.84,10.0,South,12.7,19.6,N/A,,Scattered Clouds,190,2013-03-18 15:55:00
11:15 AM,77.9,64.9,64,29.84,10.0,South,15.0,20.7,N/A,,Clear,190,2013-03-18 16:15:00
11:35 AM,79.3,65.1,62,29.84,10.0,SSW,13.8,18.4,N/A,,Scattered Clouds,200,2013-03-18 16:35:00
11:55 AM,80.2,64.9,59,29.83,10.0,SSW,13.8,-,N/A,,Scattered Clouds,200,2013-03-18 16:55:00
12:15 PM,80.8,64.6,58,29.83,10.0,SSW,15.0,19.6,N/A,,Clear,210,2013-03-18 17:15:00
12:35 PM,81.5,64.6,56,29.83,10.0,SSW,13.8,18.4,N/A,,Clear,200,2013-03-18 17:35:00
12:55 PM,82.0,64.6,55,29.82,10.0,SSW,6.9,18.4,N/A,,Clear,210,2013-03-18 17:55:00
1:15 PM,82.4,64.6,55,29.82,10.0,SW,5.8,18.4,N/A,,Clear,230,2013-03-18 18:15:00
1:35 PM,82.8,64.6,54,29.83,10.0,SW,9.2,-,N/A,,Scattered Clouds,230,2013-03-18 18:35:00
1:55 PM,83.3,64.8,53,29.81,10.0,SSW,8.1,-,N/A,,Mostly Cloudy,210,2013-03-18 18:55:00
2:15 PM,83.7,64.8,53,29.80,10.0,SSW,8.1,-,N/A,,Mostly Cloudy,210,2013-03-18 19:15:00
2:35 PM,84.6,64.4,51,29.79,10.0,SSW,11.5,18.4,N/A,,Scattered Clouds,210,2013-03-18 19:35:00
2:55 PM,85.3,63.5,48,29.78,10.0,SW,9.2,-,N/A,,Scattered Clouds,230,2013-03-18 19:55:00
3:15 PM,85.8,63.1,46,29.77,10.0,SW,8.1,-,N/A,,Scattered Clouds,230,2013-03-18 20:15:00
3:35 PM,86.5,62.6,45,29.77,10.0,WSW,9.2,-,N/A,,Scattered Clouds,240,2013-03-18 20:35:00
3:55 PM,86.2,62.1,44,29.77,10.0,WSW,6.9,-,N/A,,Scattered Clouds,250,2013-03-18 20:55:00
4:15 PM,86.9,61.9,43,29.77,10.0,WSW,8.1,-,N/A,,Clear,240,2013-03-18 21:15:00
4:35 PM,87.1,61.0,41,29.77,10.0,SW,9.2,-,N/A,,Clear,230,2013-03-18 21:35:00
4:55 PM,86.4,61.2,43,29.77,10.0,Calm,Calm,-,N/A,,Clear,0,2013-03-18 21:55:00
5:15 PM,86.2,61.2,43,29.77,10.0,NW,4.6,-,N/A,,Mostly Cloudy,310,2013-03-18 22:15:00
5:35 PM,86.7,60.4,41,29.77,10.0,Calm,Calm,-,N/A,,Mostly Cloudy,0,2013-03-18 22:35:00
5:55 PM,86.5,61.2,42,29.77,10.0,North,9.2,-,N/A,,Mostly Cloudy,350,2013-03-18 22:55:00
6:15 PM,85.3,61.7,45,29.78,10.0,NNW,5.8,-,N/A,,Scattered Clouds,340,2013-03-18 23:15:00
6:35 PM,84.0,62.1,47,29.79,10.0,NNW,4.6,-,N/A,,Scattered Clouds,340,2013-03-18 23:35:00
6:55 PM,82.6,62.1,50,29.80,10.0,NNW,4.6,-,N/A,,Scattered Clouds,340,2013-03-18 23:55:00
7:15 PM,80.6,62.1,53,29.81,10.0,NNW,5.8,-,N/A,,Clear,330,2013-03-19 00:15:00
7:35 PM,78.8,62.1,56,29.82,10.0,NNW,4.6,-,N/A,,Clear,330,2013-03-19 00:35:00
7:55 PM,76.8,62.4,61,29.83,10.0,North,3.5,-,N/A,,Clear,350,2013-03-19 00:55:00
8:15 PM,75.4,63.0,65,29.84,10.0,Calm,Calm,-,N/A,,Scattered Clouds,0,2013-03-19 01:15:00
8:35 PM,74.3,63.5,69,29.85,10.0,Calm,Calm,-,N/A,,Mostly Cloudy,0,2013-03-19 01:35:00
8:55 PM,75.6,63.3,66,29.87,10.0,NNW,11.5,-,N/A,,Mostly Cloudy,340,2013-03-19 01:55:00
9:15 PM,75.4,63.1,66,29.88,10.0,North,11.5,17.3,N/A,,Scattered Clouds,350,2013-03-19 02:15:00
9:35 PM,74.7,62.6,66,29.90,10.0,North,11.5,17.3,N/A,,Clear,350,2013-03-19 02:35:00
9:55 PM,73.9,61.7,65,29.91,10.0,North,12.7,19.6,N/A,,Clear,360,2013-03-19 02:55:00
10:15 PM,73.6,60.6,64,29.92,10.0,North,13.8,20.7,N/A,,Clear,350,2013-03-19 03:15:00
10:55 PM,72.0,59.0,64,29.95,10.0,North,6.9,-,N/A,,Clear,360,2013-03-19 03:55:00
11:15 PM,71.2,58.8,65,29.96,10.0,NNE,10.4,-,N/A,,Clear,20,2013-03-19 04:15:00
11:35 PM,70.7,58.5,65,29.96,10.0,NNE,9.2,18.4,N/A,,Clear,30,2013-03-19 04:35:00
11:55 PM,69.6,57.7,66,29.96,10.0,NE,11.5,-,N/A,,Clear,50,2013-03-19 04:55:00